Flag for Moldova Weather past 2 weeks in Tiraspol, Moldova

Now
43 °F

Fog.


Feels Like: 39 °F
Forecast: 43 / 53 °F
Wind: 6 mph from South

Location: Chisinau International Airport

Current Time: Mar 30, 2015 at 7:39:33 AM

Latest Report: Mar 30, 2015 at 7:00 AM


Visibility: 3 mi

Pressure: 29.68 "Hg

Humidity: 87%

Dew point: 39 °F

Location of TiraspolLocation

Historic Weather in Tiraspol — Graph

°F

Tiraspol temperature yesterday

Maximum temperature yesterday: 43 °F (at 12:00 AM)
Minimum temperature yesterday: 37 °F (at 8:30 AM)
Average temperature yesterday: 41 °F

Past Weeks' High & Low Weather Summary

 TemperatureHumidityPressure
High61 °F (Mar 22, 1:30 PM)93% (Mar 18, 8:30 PM)30.69 "Hg (Mar 18, 8:30 PM)
Low25 °F (Mar 24, 5:30 AM)19% (Mar 23, 4:30 PM)29.59 "Hg (Mar 29, 2:30 AM)
Average42 °F64%30.15 "Hg
* Reported Mar 15 5:00 AM — Mar 30 6:30 AM, Tiraspol, Weather by CustomWeather, © 2015

Note: Actual official high and low records may vary slightly from our data, if they occured in-between our weather recording intervals... More about our weather records

Advertising

Tiraspol weather history for previous 24 hours

 ConditionsComfort  
Time TempWeatherWind HumidityBarometerVisibility
6:30 AM
Mon, Mar 30
43 °FFog.6 mph87%29.68 "Hg3 mi
6:00 AM43 °FPassing clouds.7 mph87%29.68 "Hg6 mi
5:30 AM43 °FPartly cloudy.7 mph87%29.71 "Hg4 mi
5:00 AM43 °FFog.7 mph87%29.71 "Hg3 mi
4:30 AM43 °FFog.6 mph87%29.71 "Hg3 mi
4:00 AM43 °FFog.2 mph87%29.71 "Hg3 mi
3:30 AM43 °FMostly cloudy.2 mph87%29.74 "Hg4 mi
3:00 AM43 °FFog.5 mph87%29.74 "Hg3 mi
2:30 AM43 °FFog.3 mph87%29.74 "Hg2 mi
2:00 AM43 °FMostly cloudy.1 mph87%29.74 "Hg4 mi
1:30 AM43 °FMostly cloudy.3 mph87%29.74 "Hg4 mi
1:00 AM43 °FMostly cloudy.6 mph87%29.74 "Hg4 mi
12:30 AM41 °FFog.No wind93%29.74 "Hg3 mi
12:00 AM41 °FLight rain. Mostly cloudy.5 mph93%29.77 "Hg4 mi
11:30 PM
Sun, Mar 29
41 °FLight rain. Mostly cloudy.5 mph87%29.77 "Hg5 mi
11:00 PM41 °FLight rain. Mostly cloudy.5 mph87%29.77 "Hg4 mi
10:30 PM41 °FLight rain. Mostly cloudy.5 mph87%29.77 "Hg4 mi
10:00 PM41 °FLight rain. Mostly cloudy.5 mph87%29.77 "Hg4 mi
9:30 PM41 °FLight rain. Fog.5 mph87%29.77 "Hg3 mi
9:00 PM41 °FLight rain. Fog.3 mph87%29.74 "Hg2 mi
8:30 PM41 °FLight rain. Fog.2 mph87%29.74 "Hg2 mi
8:00 PM41 °FLight rain. Mostly cloudy.2 mph87%29.74 "HgN/A
7:30 PM41 °FLight rain. Overcast.2 mph81%29.74 "HgN/A
7:00 PM41 °FLight rain. Overcast.2 mph81%29.71 "HgN/A
6:30 PM41 °FSprinkles. More clouds than sun.2 mph81%29.71 "HgN/A
6:00 PM41 °FSprinkles. More clouds than sun.6 mph81%29.71 "HgN/A
5:30 PM41 °FLight rain. More clouds than sun.6 mph81%29.71 "HgN/A
5:00 PM43 °FLight rain. More clouds than sun.8 mph71%29.71 "HgN/A
4:30 PM41 °FLight rain. More clouds than sun.12 mph76%29.71 "HgN/A
4:00 PM41 °FLight rain. Mostly cloudy.8 mph76%29.68 "HgN/A
3:30 PM41 °FLight rain. Mostly cloudy.13 mph76%29.68 "HgN/A
3:00 PM41 °FLight rain. Mostly cloudy.10 mph76%29.68 "HgN/A
2:30 PM39 °FLight rain. Mostly cloudy.13 mph81%29.68 "HgN/A
2:00 PM39 °FSprinkles. Mostly cloudy.8 mph81%29.68 "HgN/A
1:30 PM41 °FSprinkles. Mostly cloudy.9 mph81%29.68 "HgN/A
1:00 PM39 °FSprinkles. Mostly cloudy.9 mph81%29.68 "HgN/A
12:30 PM39 °FSprinkles. Mostly cloudy.7 mph81%29.68 "HgN/A
12:00 PM39 °FSprinkles. Mostly cloudy.10 mph81%29.68 "HgN/A
11:30 AM39 °FSprinkles. Mostly cloudy.10 mph81%29.68 "HgN/A
11:00 AM37 °FSprinkles. Mostly cloudy.9 mph87%29.65 "HgN/A
10:30 AM37 °FSprinkles. Mostly cloudy.10 mph87%29.65 "HgN/A
10:00 AM37 °FSprinkles. Mostly cloudy.12 mph87%29.65 "HgN/A
9:30 AM37 °FSprinkles. Mostly cloudy.10 mph87%29.65 "HgN/A
9:00 AM37 °FSprinkles. Mostly cloudy.12 mph87%29.65 "HgN/A
8:30 AM37 °FSprinkles. Mostly cloudy.13 mph87%29.65 "HgN/A
8:00 AM39 °FSprinkles. Mostly cloudy.14 mph81%29.62 "HgN/A
7:30 AM39 °FSprinkles. Mostly cloudy.15 mph81%29.62 "HgN/A
7:00 AM39 °FSprinkles. Mostly cloudy.14 mph81%29.62 "HgN/A
Weather by CustomWeather, © 2015

See weather overviewHow to use our weather pages